Location: Creston
(38.2091°N, 122.2041°W)
Time: 11:56:01
(UTC+00:00)

Daily predictions for brighter satellites

Satellite Brightness Start Highest point End
(mag) Time Altitude Azimuth Time Altitude Azimuth Time Altitude Azimuth
Cosmos 1825 Rocket 4.1 12:01:54 10° NNW 12:05:52 36° W 12:08:19 20° SSW
CZ-2C R/B 3.2 12:02:31 10° N 12:06:05 40° WNW 12:07:44 25° SW
ARIANE 5 R/B 3.8 12:02:03 10° NNW 12:06:17 25° WNW 12:08:34 19° WSW
MSX 4.0 12:01:26 10° N 12:07:05 59° WNW 12:11:53 15° SSW
USA 267 4.1 12:02:00 10° ESE 12:08:18 53° NE 12:14:37 10° NW
Cosmos 1745 Rocket 4.1 12:04:57 10° NNW 12:11:02 57° W 12:17:03 10° SSW
USA 102 4.3 12:05:47 10° S 12:11:37 46° WSW 12:14:16 15° NW
CZ-4B R/B 3.1 12:10:04 10° SE 12:13:02 34° ENE 12:15:56 10° N
Cosmos 1455 4.3 12:11:21 10° SSE 12:14:41 29° E 12:18:04 10° NNE
Landsat 5 3.5 12:12:07 10° S 12:15:56 50° W 12:19:54 10° NNW
Cosmos 1953 Rocket 3.9 12:12:02 10° NNW 12:16:18 44° W 12:20:31 10° SSW
Lacrosse 5 rocket 3.3 12:13:36 10° S 12:17:24 27° ESE 12:21:16 10° ENE
Cosmos 1300 3.2 12:15:09 19° SW 12:17:24 39° W 12:21:01 10° N
Cosmos 1900 4.4 12:16:55 10° NW 12:22:00 63° WSW 12:27:04 10° SSE
SeaSat 1 2.4 12:17:52 10° NNE 12:22:49 84° WNW 12:27:45 10° SSW
ADEOS Rocket 4.3 12:18:41 10° SSE 12:26:10 60° ENE 12:33:46 10° N
Cosmos 2058 4.0 12:23:32 10° N 12:27:36 48° E 12:31:39 10° SSE
ERS-2 2.6 12:25:32 10° S 12:28:56 39° W 12:32:23 10° NNW
Cosmos 1844 4.4 12:33:17 12° SW 12:38:21 39° WNW 12:43:44 10° N
TSX-5 3.8 12:39:46 10° SSW 12:42:53 57° ESE 12:46:01 10° NNE
SAR-Lupe-4 3.5 12:41:55 10° S 12:45:28 75° WSW 12:49:03 10° NNW
Cosmos 1689 Rocket 3.8 12:44:03 10° SE 12:46:45 37° ENE 12:49:28 10° N
CZ-2C R/B 2.8 12:44:31 10° N 12:48:51 42° WNW 12:53:16 10° SW
PSLV R/B 4.4 12:45:47 10° N 12:49:40 32° WNW 12:53:31 10° SW
Cosmos 1709 Rocket 4.2 12:45:08 10° NNW 12:51:01 48° W 12:56:49 10° SSW
ASTRO F (AKARI) 4.3 12:48:27 10° NNE 12:51:33 82° ESE 12:54:39 10° S
IDEFIX/ARIANE 42P 4.4 12:48:51 10° NNW 12:51:40 15° WNW 12:54:29 10° W
ADEOS 3.6 12:49:01 10° N 12:54:11 65° WNW 12:59:20 10° SSW
ATLAS 3B CENTAUR R/B 4.4 12:49:08 10° W 12:55:26 17° SW 12:59:37 10° S
